Regional Weather Roundup
Issued by NWS State College, PA

Home | Current Version | Previous Version | Text Only | Print | Product List | Glossary Off
Versions: 1 2 3 4 5 6 7 8 9 10 11 12 13 14 15 16 17 18 19 20 21 22 23 24 25 26 27 28 29 30 31 32 33 34 35 36 37 38 39 40 41 42 43 44 45 46 47 48 49 50

000
ASUS41 KCTP 201603
RWRCTP

REGIONAL WEATHER ROUNDUP
NATIONAL WEATHER SERVICE STATE COLLEGE PA
1200 PM EDT SAT SEP 20 2014

Note: "fair" indicates few or no clouds below 12,000 feet with no
significant weather and/or obstructions to visibility.

* = STATION THAT DOES NOT REPORT PRECIPITATION /E.G. RAIN...SNOW...ETC/
    THUNDER OR FOG.

PAZ002>004-007>009-013>016-020>023-029>032-201700-
WESTERN PENNSYLVANIA

CITY           SKY/WX    TMP DP  RH WIND       PRES   REMARKS
ERIE           MOSUNNY   73  60  63 SW16      30.04F
MEADVILLE      MOSUNNY   69  59  70 S13G18    30.08F
FRANKLIN*      PTSUNNY   70  57  64 SW12G21   30.12F
NEW CASTLE     NOT AVBL
BEAVER COUNTY  MOSUNNY   73  61  64 SW9       30.11F
BUTLER*        MOSUNNY   73  57  56 SW9       30.13F
PITTSBURGH INT PTSUNNY   72  58  61 SW15      30.11F
PITTSBURGH     SUNNY     74  57  55 SW10G24   30.13F
INDIANA*       MOSUNNY   73  57  56 SW14G20   30.18F
LATROBE        MOSUNNY   73  59  60 SW14G23   30.16F
WASHINGTON CO* MOSUNNY   75  61  60 SW8       30.14F
$$

PAZ004>006-010>012-017>019-024>028-033>037-041-042-045-046-049>053-201700-
CENTRAL PENNSYLVANIA

CITY           SKY/WX    TMP DP  RH WIND       PRES   REMARKS
BRADFORD       CLOUDY    65  56  72 S10G16    30.13F
DUBOIS         MOSUNNY   69  58  67 SW14G22   30.13F
CLEARFIELD     PTSUNNY   70  58  65 S10       30.15F
JOHNSTOWN      SUNNY     70  55  59 SW9G18    30.19F
ALTOONA        MOSUNNY   71  59  65 S12       30.19F
STATE COLLEGE  PTSUNNY   68  59  73 S13G20    30.18F
WILLIAMSPORT   PTSUNNY   71  58  63 S14G22    30.16F
SELINSGROVE    CLOUDY    68  58  70 S7G17     30.21F
FT INDIANTOWN  PTSUNNY   69  62  77 SW5       30.23F
CAPITAL CITY   MOSUNNY   72  58  61 SW7       30.21F
HARRISBURG     PTSUNNY   75  60  59 MISG      30.21F
YORK           MOSUNNY   73  59  61 VRB6      30.22F
$$

PAZ038>040-043-044-047-048-054-055-060>062-067>071-201700-
EASTERN PENNSYLVANIA

CITY           SKY/WX    TMP DP  RH WIND       PRES   REMARKS
SCRANTON       CLOUDY    66  56  70 S8        30.22F
MOUNT POCONO   CLOUDY    60  55  83 S9        30.26F
ALLENTOWN      CLOUDY    71  56  58 S8        30.24F
QUAKERTOWN*    PTSUNNY   72  57  60 SW10      30.26F
READING        MOSUNNY   73  58  59 S8        30.22F
LANCASTER      PTSUNNY   73  58  59 S8        30.23F
COATESVILLE    PTSUNNY   70  59  68 SE8       30.26F
POTTSTOWN      PTSUNNY   72  58  61 VRB6      30.26F
BLUE BELL      PTSUNNY   73  61  64 SE5       30.25F
DOYLESTOWN     PTSUNNY   70  57  63 S8        30.25F
WILLOW GROVE   NOT AVBL
NORTH PHILA    MOSUNNY   75  55  49 SW9       30.27F
PHILADELPHIA   MOSUNNY   75  58  55 S9        30.25F
$$


USA.gov is the U.S. government's official web portal to all federal, state and local government web resources and services.